Theta_e
346 348 350 349 348 347 344 337 347 345 343 341 340 348 344 342 343 347 349 360 361 360 357 357 355 352 351 353 353 353 353 353 354 352 352 351 350 351 348 347 347 348 349
347 350 349 347 348 347 342 340 344 337 336 339 341 345 341 341 343 346 348 352 360 360 359 356 357 356 355 352 350 352 353 353 351 351 351 352 352 352 351 348 346 348 350
348 348 347 345 345 345 344 344 344 340 341 340 339 337 339 340 341 344 347 347 353 360 360 359 358 357 355 356 356 352 349 350 351 352 353 352 353 352 351 351 351 351 350
352 350 347 348 349 347 347 345 344 343 342 342 335 337 336 340 340 342 344 346 347 347 358 360 359 359 357 356 356 355 355 354 354 354 354 354 354 353 353 353 353 354 353
354 351 349 348 346 346 345 345 343 344 338 340 339 333 334 334 340 341 340 342 343 345 350 357 357 355 355 355 355 355 356 355 355 355 354 355 355 354 354 353 353 353 353
354 352 348 350 348 343 346 346 340 335 328 330 335 332 330 334 338 337 340 342 342 344 346 348 348 349 356 355 353 354 355 356 356 355 355 355 355 355 354 353 352 351 351
353 352 351 349 347 344 346 343 340 337 328 332 328 326 326 331 333 334 340 339 340 342 344 345 345 347 348 355 354 354 351 352 352 353 353 355 353 352 352 349 350 349 349
354 353 351 348 349 346 344 343 343 338 331 331 331 325 320 323 329 331 335 339 338 340 341 344 343 342 345 344 346 355 355 352 352 352 351 351 351 352 350 349 348 346 346
355 354 351 350 350 349 346 345 344 339 328 332 334 328 320 317 322 329 327 331 335 335 339 341 341 342 343 342 349 350 353 352 351 349 348 347 347 347 345 343 342 342 342
355 354 353 352 350 349 347 347 348 343 335 326 330 337 333 330 319 319 327 327 330 331 336 341 342 342 341 339 343 344 350 348 348 343 339 338 338 338 336 336 338 340 340
354 354 352 351 350 349 345 346 348 345 341 335 325 329 329 330 330 324 320 323 329 328 332 339 341 340 336 333 333 337 345 342 342 342 341 339 337 336 334 333 333 334 334
351 353 354 351 350 351 349 345 345 347 344 340 333 330 328 326 326 326 323 324 323 326 330 331 332 338 333 331 335 338 343 340 339 339 340 341 342 339 336 336 336 335 336
345 350 354 352 351 351 350 348 347 348 344 345 340 335 330 328 330 327 326 326 325 326 327 328 331 332 336 330 332 339 344 339 338 337 336 337 339 341 342 340 339 340 340
348 350 354 354 353 353 351 349 348 348 349 345 344 338 335 336 335 331 326 326 320 322 325 325 330 330 333 330 330 343 335 337 337 334 334 335 337 338 339 340 341 342 341
352 351 352 355 354 354 351 351 348 348 351 347 344 345 337 335 335 335 330 329 324 320 320 326 326 331 332 333 332 335 329 336 336 335 332 332 333 335 337 337 338 338 338
348 352 352 355 354 353 353 352 351 349 349 349 347 343 342 340 336 334 333 328 327 323 319 326 328 330 332 337 335 334 329 335 336 334 332 331 332 333 335 336 337 337 337
347 348 352 352 355 354 353 351 351 353 349 350 349 346 343 342 339 334 333 332 328 325 321 322 328 330 331 331 332 333 330 329 329 334 333 332 331 332 334 335 334 335 335
350 347 352 352 353 354 355 352 350 352 353 349 350 348 346 346 340 335 332 331 330 327 323 320 322 331 329 331 331 333 332 334 333 334 332 331 330 330 330 330 330 330 329
348 351 354 352 352 353 354 355 353 352 351 352 351 350 349 346 344 341 333 334 331 329 327 322 322 330 328 330 327 329 329 332 334 337 332 330 330 329 328 326 326 324 322
345 349 352 355 354 354 354 354 355 354 353 352 352 352 351 349 347 344 339 335 334 331 328 327 324 328 328 331 330 328 328 332 331 336 337 334 333 332 330 326 325 324 320
353 348 350 352 357 356 356 355 354 353 354 353 352 354 353 352 347 345 345 340 334 333 329 329 325 324 326 329 330 329 328 330 334 334 333 330 329 328 330 330 331 330 324
350 353 352 354 352 357 345 341 352 355 354 353 352 352 353 349 346 339 338 339 340 336 333 332 331 328 329 328 330 332 331 325 326 333 334 333 328 326 329 329 330 328 324
353 349 350 353 353 354 337 337 341 355 354 354 353 353 353 354 348 352 338 335 336 333 336 335 333 332 331 332 331 330 333 331 331 331 334 332 330 330 332 330 327 325 323
356 354 351 351 354 354 334 332 336 353 355 355 355 354 353 354 353 351 352 344 343 344 338 336 336 336 336 336 334 333 334 334 331 330 333 328 328 331 330 330 326 325 322
355 355 357 355 352 353 330 329 332 349 353 355 356 356 356 355 343 333 351 350 347 345 340 330 331 329 327 326 330 333 331 329 329 330 331 330 325 326 325 325 325 324 321
356 357 356 357 349 356 330 326 331 353 352 353 356 357 338 348 334 328 346 351 349 350 347 347 339 333 327 329 326 335 335 330 329 325 330 328 324 324 319 321 321 324 321
Wind_Speed
4 2 3 1 2 1 1 2 3 3 4 4 5 8 7 6 6 3 2 10 9 10 11 11 10 10 11 10 8 6 6 6 6 6 5 4 4 3 2 1 1 1 3
4 4 4 3 3 3 2 2 3 0 2 3 5 6 5 5 5 5 3 4 9 8 11 11 11 10 10 9 8 7 6 5 3 2 2 3 4 4 3 2 2 3 3
6 6 4 4 4 2 2 1 3 3 3 3 6 2 4 5 6 5 4 3 5 10 9 12 11 10 9 8 9 8 7 6 6 5 4 3 4 5 4 4 5 5 5
6 5 4 4 3 3 4 3 3 1 2 1 1 2 5 4 5 5 4 3 2 2 7 8 9 9 9 9 8 7 6 7 6 6 5 6 6 6 6 6 6 6 5
6 6 4 3 4 3 3 2 1 2 2 1 3 4 3 4 5 5 5 5 5 4 3 6 7 7 7 7 6 7 7 8 8 8 7 7 7 7 6 6 6 6 6
7 5 4 3 3 2 2 2 2 2 1 2 3 2 4 3 4 4 5 3 3 4 4 3 2 2 5 6 5 5 7 8 8 8 7 7 7 7 6 6 6 6 6
7 6 4 4 4 4 2 2 2 3 2 2 4 3 2 4 3 4 4 4 3 4 5 4 2 2 2 4 4 3 4 4 4 6 7 7 6 5 4 3 4 4 5
6 6 6 5 4 3 3 3 2 1 1 0 3 3 3 5 4 1 2 4 5 4 4 5 5 4 4 2 3 4 3 2 3 3 4 4 5 7 6 5 4 4 5
6 7 7 5 5 3 4 3 3 4 2 2 2 5 3 1 2 3 3 3 6 4 3 4 5 5 4 4 4 4 5 4 3 4 4 4 5 6 6 4 4 5 5
6 7 7 6 5 4 5 4 3 3 3 3 2 2 2 5 3 1 1 1 1 5 5 4 5 5 5 4 6 6 7 7 7 5 6 6 4 4 4 4 4 4 4
8 9 7 7 6 4 5 6 4 4 3 3 3 2 1 1 2 3 2 2 2 3 4 5 6 5 5 5 4 6 10 9 9 8 7 6 6 6 4 3 2 1 1
7 7 8 6 6 6 6 6 5 5 5 4 3 3 3 4 3 3 2 3 3 4 4 4 5 5 5 5 8 11 11 10 9 9 8 7 7 6 5 5 5 4 4
4 7 7 7 6 6 6 6 6 5 5 4 5 3 3 3 3 3 3 3 4 3 3 4 5 5 6 5 6 11 13 11 10 9 9 9 8 7 6 6 6 6 6
8 9 10 8 8 7 6 6 4 4 5 4 6 4 3 3 3 4 5 5 1 1 2 6 4 5 5 6 9 15 7 13 12 11 11 11 10 9 9 9 9 8 7
7 10 11 10 9 9 8 7 5 6 5 5 6 5 4 4 4 3 3 3 5 3 5 4 3 6 6 5 9 9 8 13 14 13 13 12 12 11 10 11 11 10 9
8 10 10 11 9 10 9 9 6 5 7 5 5 6 6 4 5 4 4 3 3 5 3 5 6 5 7 7 9 10 10 12 16 15 14 14 13 13 12 11 11 9 9
9 9 10 10 12 12 11 9 8 8 10 9 6 7 7 6 5 5 3 3 3 4 5 4 4 4 5 6 6 7 6 7 6 14 14 13 13 12 13 12 11 8 9
7 9 8 11 13 13 12 12 11 11 11 10 10 8 11 6 7 6 5 6 5 5 5 7 3 3 5 6 6 9 9 9 7 11 16 16 14 13 13 14 11 9 10
10 7 10 12 13 14 13 13 13 12 11 12 12 12 12 9 10 6 5 6 4 3 4 4 5 3 3 2 3 5 5 7 4 11 12 16 15 15 15 14 12 12 12
10 10 9 11 12 13 14 14 14 13 12 12 12 13 13 13 14 10 7 8 5 4 4 3 3 3 3 4 2 6 6 4 8 6 9 9 12 15 16 14 14 13 13
11 12 12 11 12 12 11 14 14 14 14 13 12 12 14 16 20 16 10 10 8 8 5 6 4 4 4 4 9 5 6 6 7 5 4 4 4 4 6 12 10 13 14
14 13 13 14 14 12 15 19 17 15 15 15 14 14 14 16 18 20 20 18 16 13 12 9 10 9 14 7 4 10 9 4 8 5 7 9 6 6 7 6 11 10 14
15 16 16 15 16 15 16 19 21 15 14 15 16 14 13 13 15 15 18 19 19 21 21 15 16 15 15 14 12 7 10 9 12 4 6 10 5 9 7 7 13 14 15
15 15 16 16 15 15 14 17 19 18 15 16 16 16 17 16 16 15 15 13 18 20 18 15 17 18 17 15 15 15 16 14 5 6 9 11 5 6 5 6 10 14 16
14 15 15 16 17 15 16 17 14 13 15 18 16 16 17 18 15 15 15 16 16 20 18 23 24 23 17 17 15 8 9 9 11 9 10 11 5 5 4 4 5 14 16
15 12 14 15 15 14 14 18 17 11 15 13 15 18 18 18 14 17 17 17 19 18 14 15 14 19 17 16 20 19 14 14 12 4 6 12 5 6 3 4 6 6 6
Wind_Direction
154 210 215 195 215 167 230 297 296 355 351 37 29 136 144 148 128 130 158 170 173 167 165 159 156 157 157 153 147 145 141 137 142 154 145 142 142 139 122 79 12 334 325
165 183 196 200 230 193 222 236 270 280 230 94 46 144 140 118 119 151 157 171 171 176 172 175 172 170 166 162 164 166 167 160 160 169 166 190 183 183 202 218 267 288 296
161 167 173 178 203 199 239 154 281 307 19 352 78 153 141 142 149 160 173 184 170 181 182 184 176 180 180 176 181 178 184 188 198 223 206 227 246 229 232 242 252 269 289
149 143 173 202 180 198 212 150 224 345 1 338 45 177 161 153 130 166 175 165 134 164 183 185 185 186 189 185 195 196 202 204 215 234 238 239 253 247 247 263 282 287 292
153 142 166 168 180 204 164 181 144 207 222 211 238 134 177 133 172 173 166 169 180 166 167 181 182 192 197 195 196 210 211 220 224 237 238 242 255 259 253 260 264 269 269
149 129 158 170 137 194 137 144 86 44 111 168 77 119 69 158 178 158 164 176 171 164 165 164 155 186 194 188 200 221 231 234 231 238 242 247 248 254 262 266 284 303 309
156 141 162 173 171 165 200 130 115 82 39 98 79 358 37 89 179 167 180 159 174 178 162 169 158 193 202 211 182 229 246 245 231 239 229 243 259 269 270 331 40 28 45
160 153 158 188 188 164 139 186 125 82 52 33 122 82 29 352 23 60 168 161 181 180 171 172 172 188 200 132 177 161 136 143 117 118 106 93 74 87 98 103 109 87 74
173 162 172 166 174 172 181 189 161 135 138 348 74 130 79 201 2 359 313 219 176 191 185 187 184 191 194 179 176 178 158 150 148 135 115 99 97 103 111 114 97 94 87
187 178 182 180 186 173 181 189 184 158 124 162 35 55 111 146 160 2 331 341 200 209 199 198 191 202 185 189 181 187 180 178 175 162 148 132 114 106 112 105 101 102 107
190 191 186 177 187 181 194 184 184 180 159 142 156 153 88 69 98 123 231 270 306 251 238 190 191 201 186 189 185 199 192 189 185 171 161 156 151 147 151 140 151 153 254
197 195 189 181 186 190 189 191 199 189 186 169 172 164 164 162 189 144 145 237 205 251 214 211 198 201 195 190 199 199 197 193 196 186 177 184 185 183 185 195 215 225 250
189 203 182 187 196 189 196 183 181 193 193 183 173 193 179 193 147 148 135 214 215 237 215 232 213 201 202 188 203 198 198 199 202 203 194 197 206 212 212 223 246 255 259
195 192 195 192 197 188 189 187 177 194 186 199 194 183 182 190 175 177 175 152 267 289 285 230 222 198 206 193 202 198 201 204 209 207 210 202 211 219 228 238 245 250 258
193 193 193 194 197 195 187 183 191 194 186 194 210 194 195 206 211 197 199 173 156 202 239 260 221 203 199 185 203 197 201 205 216 216 219 216 208 218 228 238 248 253 258
195 193 191 194 194 199 194 183 193 187 188 205 206 204 208 211 211 204 204 212 182 166 208 204 233 212 191 200 203 198 210 204 214 219 223 225 217 216 224 231 239 245 252
193 192 193 191 198 199 199 192 195 195 197 206 201 210 218 210 222 213 213 207 214 158 191 287 233 208 196 185 196 204 214 214 224 225 230 233 231 225 227 231 232 230 240
189 195 188 194 199 202 199 200 202 202 202 202 208 208 225 217 226 218 208 219 207 202 159 220 250 229 210 205 202 195 209 218 216 225 223 230 232 226 225 231 224 209 229
205 182 191 197 197 201 200 204 206 207 204 207 203 207 220 213 228 221 216 223 219 207 212 181 232 217 206 185 182 224 207 227 223 226 222 221 230 227 223 229 220 205 213
203 199 196 198 199 200 202 204 206 210 215 214 209 209 215 214 222 218 212 219 218 215 206 227 231 218 200 227 212 209 226 216 227 220 224 217 209 228 223 219 223 207 212
206 208 207 204 206 201 202 206 209 210 213 219 216 215 218 218 219 216 210 218 198 214 196 216 217 212 199 188 210 192 217 227 241 206 218 230 215 209 226 236 238 214 204
211 207 212 210 208 212 205 199 204 213 215 218 223 223 227 222 224 217 212 215 206 212 219 219 229 222 227 215 195 210 212 186 249 201 206 235 177 219 216 204 214 211 206
206 213 217 217 223 218 203 200 205 216 218 222 223 225 227 228 223 225 223 222 219 215 218 214 228 224 230 219 210 208 207 209 231 230 198 237 181 223 216 211 200 197 205
208 212 217 220 222 226 198 200 204 218 226 229 229 228 229 229 226 218 226 219 229 233 227 225 228 234 230 227 213 211 212 217 217 205 180 218 180 221 200 216 185 193 196
214 216 216 217 222 223 198 199 194 217 230 235 234 232 231 233 228 207 220 227 227 234 227 227 232 238 229 215 204 204 207 199 228 237 193 210 195 186 175 200 211 193 192
215 217 221 220 218 220 198 197 197 219 233 234 237 242 229 235 219 206 217 227 238 240 230 236 237 245 239 228 202 214 223 223 226 219 213 203 162 141 212 205 185 184 188